Погода в Кедири

Индонезия     7°49′16″S   111°59′56″E
темп.,
°C
ветер,
м/с
пор.,
м/с
влажн.,
%
обл.,
%
осадки,
мм/ч
давл.,
гПа
погр.,
м
19 сентября, вс
вс1901:00+24ююз61085100 0.1 1011538
04:00+23ююз698454 0.0 1011402
07:00+25ююз677591 0.1 1013533
10:00+31ююз444932 0.0 10121484
13:00+31ююз864920 0.0 10101354
16:00+28ю996023 0.0 10101017
19:00+24ююз8128011 0.1 1013600
22:00+24ююз710797 0.1 1014544
20 сентября, пн
пн2001:00+23ююз711826 0.1 1012580
04:00+23ююз7128557 0.0 1011554
07:00+25ю811747 0.1 1013720
10:00+31ю774511 0.0 10121637
13:00+33ююз754064 0.0 10082177
16:00+29ю910577 0.0 1008895
19:00+24ююз7117872 0.0 1011520
22:00+24ююз588382 0.0 1012370
21 сентября, вт
вт2101:00+23ююз578355 0.0 1011349
04:00+23ююз4782100 0.0 1010298
07:00+26ююз457223 0.0 1012572
10:00+31ю434944 0.0 10111420
13:00+33ю434274 0.5 10082178
16:00+28ю7866100 0.6 1008723
19:00+25ююз698012 0.7 1011386
22:00+24ююз588429 0.1 1012308
22 сентября, ср
ср2201:00+24ююз478249 0.1 1011295
04:00+23ююз4779100 0.0 1010269
07:00+26ю457149 0.0 1011537
10:00+32ююв32485 0.0 10101477
13:00+35ю233423 0.0 10072468
16:00+29ююв455875 0.4 1008407
19:00+25ююз357863 0.5 1011128
22:00+25ююз3680100 0.0 1012217
23 сентября, чт
чт2301:00+24ююз1279100 0.0 101051
04:00+23ююз2279100 0.0 101057
07:00+26ююз226897 0.0 1012304
10:00+32ююв334347 0.0 10111556
13:00+35ююз443557 0.0 10072279
16:00+29ююз895792 0.1 1008851
19:00+26ююз8117793 0.1 1010593
22:00+25ююз687826 0.0 1012437